timestamp,surface_pressure_avg,surface_temp_avg,battery_voltage,lat,long
2017-12-06 00:00:00+00:00,333.4897,5.8,12.49,47.84626,-54.09684
2017-12-06 00:10:00+00:00,335.8979,5.7,12.49,47.84626,-54.09684
2017-12-06 00:20:00+00:00,338.1647,5.74,12.57,47.84626,-54.09684
2017-12-06 00:30:00+00:00,342.2963,5.79,12.57,47.84626,-54.09684
2017-12-06 00:40:00+00:00,346.5181,5.8,12.57,47.84626,-54.09684
2017-12-06 00:50:00+00:00,347.8045,5.89,12.57,47.84626,-54.09684
2017-12-06 01:00:00+00:00,350.3062,5.9,12.49,47.84626,-54.09684
2017-12-06 01:10:00+00:00,350.7078,5.9,12.49,47.84626,-54.09684
2017-12-06 01:20:00+00:00,349.313,5.93,12.57,47.84626,-54.09684
2017-12-06 01:30:00+00:00,348.9481,5.97,12.57,47.84626,-54.09684
2017-12-06 01:40:00+00:00,347.9445,6.0,12.57,47.84626,-54.09684
2017-12-06 01:50:00+00:00,344.588,6.0,12.57,47.84626,-54.09684
2017-12-06 02:00:00+00:00,338.2463,6.0,12.49,47.84626,-54.09684
2017-12-06 02:10:00+00:00,336.8648,6.0,12.49,47.84626,-54.09684
2017-12-06 02:20:00+00:00,338.438,6.0,12.57,47.84626,-54.09684
2017-12-06 02:30:00+00:00,333.8663,6.02,12.57,47.84626,-54.09684
2017-12-06 02:40:00+00:00,329.748,6.0,12.57,47.84626,-54.09684
2017-12-06 02:50:00+00:00,327.7912,6.0,12.57,47.84626,-54.09684
2017-12-06 03:00:00+00:00,321.848,6.0,12.49,47.84626,-54.09684
2017-12-06 03:10:00+00:00,309.8331,6.0,12.49,47.84626,-54.09684
2017-12-06 03:20:00+00:00,300.8063,6.0,12.57,47.84626,-54.09684
2017-12-06 03:30:00+00:00,297.1514,6.04,12.57,47.84626,-54.09684
2017-12-06 03:40:00+00:00,287.9431,6.09,12.57,47.84626,-54.09684
2017-12-06 03:50:00+00:00,276.4031,6.0,12.57,47.84626,-54.09684
2017-12-06 04:00:00+00:00,267.9447,6.0,12.49,47.84626,-54.09684
2017-12-06 04:10:00+00:00,263.0164,6.07,12.49,47.84626,-54.09684
2017-12-06 04:20:00+00:00,250.5631,6.1,12.57,47.84626,-54.09684
2017-12-06 04:30:00+00:00,234.1164,6.09,12.57,47.84626,-54.09684
2017-12-06 04:40:00+00:00,222.4648,5.94,12.57,47.84626,-54.09684
2017-12-06 04:50:00+00:00,213.2164,5.8,12.57,47.84626,-54.09684
2017-12-06 05:00:00+00:00,200.8748,5.7,12.49,47.84626,-54.09684
2017-12-06 05:10:00+00:00,191.3298,5.62,12.49,47.84626,-54.09684
2017-12-06 05:20:00+00:00,188.1364,5.6,12.57,47.84626,-54.09684
2017-12-06 05:30:00+00:00,182.5781,5.6,12.57,47.84626,-54.09684
2017-12-06 05:40:00+00:00,174.9082,5.6,12.57,47.84626,-54.09684
2017-12-06 05:50:00+00:00,172.3732,5.6,12.57,47.84626,-54.09684
2017-12-06 06:00:00+00:00,171.0382,5.6,12.49,47.84626,-54.09684
2017-12-06 06:10:00+00:00,167.6148,5.6,12.49,47.84626,-54.09684
2017-12-06 06:20:00+00:00,164.6098,5.6,12.57,47.84626,-54.09684
2017-12-06 06:30:00+00:00,163.7514,5.59,12.57,47.84626,-54.09684
2017-12-06 06:40:00+00:00,161.5015,5.58,12.57,47.84626,-54.09684
2017-12-06 06:50:00+00:00,161.6964,5.51,12.57,47.84626,-54.09684
2017-12-06 07:00:00+00:00,165.6014,5.5,12.49,47.84626,-54.09684
2017-12-06 07:10:00+00:00,168.4997,5.5,12.49,47.84626,-54.09684
2017-12-06 07:20:00+00:00,169.4181,5.5,12.57,47.84626,-54.09684
2017-12-06 07:30:00+00:00,173.2831,5.5,12.57,47.84626,-54.09684
2017-12-06 07:40:00+00:00,178.6448,5.49,12.57,47.84626,-54.09684
2017-12-06 07:50:00+00:00,181.0248,5.45,12.57,47.84626,-54.09684
2017-12-06 08:00:00+00:00,185.9498,5.4,12.49,47.84626,-54.09684
2017-12-06 08:10:00+00:00,192.2664,5.46,12.49,47.84626,-54.09684
2017-12-06 08:20:00+00:00,193.9182,5.5,12.57,47.84626,-54.09684
2017-12-06 08:30:00+00:00,197.1797,5.5,12.57,47.84626,-54.09684
2017-12-06 08:40:00+00:00,203.6697,5.5,12.57,47.84626,-54.09684
2017-12-06 08:50:00+00:00,209.6848,5.5,12.57,47.84626,-54.09684
2017-12-06 09:00:00+00:00,212.1897,5.47,12.49,47.84626,-54.09684
2017-12-06 09:10:00+00:00,212.4314,5.4,12.49,47.84626,-54.09684
2017-12-06 09:20:00+00:00,215.9865,5.4,12.57,47.84626,-54.09684
2017-12-06 09:30:00+00:00,224.9981,5.4,12.57,47.84626,-54.09684
2017-12-06 09:40:00+00:00,233.2298,5.4,12.57,47.84626,-54.09684
2017-12-06 09:50:00+00:00,239.8581,5.49,12.57,47.84626,-54.09684
2017-12-06 10:00:00+00:00,245.5797,5.5,12.49,47.84626,-54.09684
2017-12-06 10:10:00+00:00,251.8781,5.56,12.49,47.84626,-54.09684
2017-12-06 10:20:00+00:00,257.6314,5.68,12.57,47.84626,-54.09684
2017-12-06 10:30:00+00:00,264.7415,5.7,12.57,47.84626,-54.09684
2017-12-06 10:40:00+00:00,274.1014,5.7,12.57,47.84626,-54.09684
2017-12-06 10:50:00+00:00,285.0731,5.62,12.57,47.84626,-54.09684
2017-12-06 11:00:00+00:00,293.5447,5.69,12.49,47.84626,-54.09684
2017-12-06 11:10:00+00:00,295.2764,5.6,12.49,47.84626,-54.09684
2017-12-06 11:20:00+00:00,302.1497,5.59,12.57,47.84626,-54.09684
2017-12-06 11:30:00+00:00,321.1247,5.6,12.57,47.84626,-54.09684
2017-12-06 11:40:00+00:00,333.1561,5.67,12.57,47.84626,-54.09684
2017-12-06 11:50:00+00:00,333.7963,5.5,12.57,47.84626,-54.09684
2017-12-06 12:00:00+00:00,342.1179,5.44,12.49,47.84626,-54.09684
2017-12-06 12:10:00+00:00,355.0813,5.59,12.49,47.84626,-54.09684
2017-12-06 12:20:00+00:00,360.7844,5.6,12.57,47.84626,-54.09684
2017-12-06 12:30:00+00:00,360.3763,5.4,12.57,47.84626,-54.09684
2017-12-06 12:40:00+00:00,363.858,5.36,12.57,47.84626,-54.09684
2017-12-06 12:50:00+00:00,371.603,5.34,12.57,47.84626,-54.09684
2017-12-06 13:00:00+00:00,376.3647,5.33,12.49,47.84626,-54.09684
2017-12-06 13:10:00+00:00,371.9796,5.3,12.49,47.84626,-54.09684
2017-12-06 13:20:00+00:00,374.2146,5.34,12.57,47.84626,-54.09684
2017-12-06 13:30:00+00:00,386.8395,5.32,12.57,47.84626,-54.09684
2017-12-06 13:40:00+00:00,389.9513,5.3,12.57,47.84626,-54.09684
2017-12-06 13:50:00+00:00,384.0111,5.31,12.57,47.84626,-54.09684
2017-12-06 14:00:00+00:00,387.6113,5.36,12.49,47.84626,-54.09684
2017-12-06 14:10:00+00:00,389.9765,5.37,12.49,47.84626,-54.09684
2017-12-06 14:20:00+00:00,385.7795,5.37,12.57,47.84626,-54.09684
2017-12-06 14:30:00+00:00,381.7213,5.39,12.57,47.84626,-54.09684
2017-12-06 14:40:00+00:00,380.5944,5.4,12.57,47.84626,-54.09684
2017-12-06 14:50:00+00:00,376.6879,5.4,12.57,47.84626,-54.09684
2017-12-06 15:00:00+00:00,369.8628,5.47,12.49,47.84626,-54.09684
2017-12-06 15:10:00+00:00,363.0446,5.5,12.49,47.84626,-54.09684
2017-12-06 15:20:00+00:00,356.9214,5.4,12.57,47.84626,-54.09684
2017-12-06 15:30:00+00:00,348.1247,5.4,12.57,47.84626,-54.09684
2017-12-06 15:40:00+00:00,342.1146,5.4,12.57,47.84626,-54.09684
2017-12-06 15:50:00+00:00,331.973,5.4,12.57,47.84626,-54.09684
2017-12-06 16:00:00+00:00,319.4746,5.4,12.49,47.84626,-54.09684
2017-12-06 16:10:00+00:00,307.7313,5.4,12.49,47.84626,-54.09684
2017-12-06 16:20:00+00:00,300.0214,5.39,12.57,47.84626,-54.09684
2017-12-06 16:30:00+00:00,285.348,5.38,12.57,47.84626,-54.09684
2017-12-06 16:40:00+00:00,270.5447,5.4,12.57,47.84626,-54.09684
2017-12-06 16:50:00+00:00,265.6031,5.4,12.57,47.84626,-54.09684
2017-12-06 17:00:00+00:00,257.5681,5.4,12.49,47.84626,-54.09684
2017-12-06 17:10:00+00:00,238.6231,5.4,12.49,47.84626,-54.09684
2017-12-06 17:20:00+00:00,226.3948,5.4,12.57,47.84626,-54.09684
2017-12-06 17:30:00+00:00,220.2481,5.43,12.57,47.84626,-54.09684
2017-12-06 17:40:00+00:00,207.3698,5.48,12.57,47.84626,-54.09684
2017-12-06 17:50:00+00:00,193.6565,5.5,12.57,47.84626,-54.09684
2017-12-06 18:00:00+00:00,181.9982,5.6,12.49,47.84626,-54.09684
2017-12-06 18:10:00+00:00,173.0931,5.64,12.49,47.84626,-54.09684
2017-12-06 18:20:00+00:00,167.5098,5.68,12.57,47.84626,-54.09684
2017-12-06 18:30:00+00:00,166.5048,5.7,12.57,47.84626,-54.09684
2017-12-06 18:40:00+00:00,164.7298,5.7,12.57,47.84626,-54.09684
2017-12-06 18:50:00+00:00,157.9449,5.7,12.57,47.84626,-54.09684
2017-12-06 19:00:00+00:00,158.3315,5.7,12.49,47.84626,-54.09684
2017-12-06 19:10:00+00:00,161.5598,5.7,12.49,47.84626,-54.09684
2017-12-06 19:20:00+00:00,157.2032,5.7,12.57,47.84626,-54.09684
2017-12-06 19:30:00+00:00,156.0831,5.7,12.57,47.84626,-54.09684
2017-12-06 19:40:00+00:00,160.6783,5.7,12.57,47.84626,-54.09684
2017-12-06 19:50:00+00:00,158.6949,5.7,12.57,47.84626,-54.09684
2017-12-06 20:00:00+00:00,161.6498,5.7,12.49,47.84626,-54.09684
2017-12-06 20:10:00+00:00,167.5414,5.7,12.49,47.84626,-54.09684
2017-12-06 20:20:00+00:00,168.5132,5.7,12.57,47.84626,-54.09684
2017-12-06 20:30:00+00:00,172.0348,5.7,12.57,47.84626,-54.09684
2017-12-06 20:40:00+00:00,175.4265,5.7,12.57,47.84626,-54.09684
2017-12-06 20:50:00+00:00,178.1498,5.7,12.57,47.84626,-54.09684
2017-12-06 21:00:00+00:00,184.8732,5.7,12.49,47.84626,-54.09684
2017-12-06 21:10:00+00:00,188.5865,5.7,12.49,47.84626,-54.09684
2017-12-06 21:20:00+00:00,190.4048,5.7,12.57,47.84626,-54.09684
2017-12-06 21:30:00+00:00,193.4849,5.7,12.57,47.84626,-54.09684
2017-12-06 21:40:00+00:00,194.7031,5.7,12.57,47.84626,-54.09684
2017-12-06 21:50:00+00:00,198.8015,5.7,12.57,47.84626,-54.09684
2017-12-06 22:00:00+00:00,210.5781,5.7,12.49,47.84626,-54.09684
2017-12-06 22:10:00+00:00,213.4814,5.72,12.49,47.84626,-54.09684
2017-12-06 22:20:00+00:00,208.2164,5.7,12.57,47.84626,-54.09684
2017-12-06 22:30:00+00:00,216.8814,5.7,12.57,47.84626,-54.09684
2017-12-06 22:40:00+00:00,228.3348,5.7,12.57,47.84626,-54.09684
2017-12-06 22:50:00+00:00,232.6814,5.7,12.57,47.84626,-54.09684
2017-12-06 23:00:00+00:00,237.6164,5.69,12.49,47.84626,-54.09684
2017-12-06 23:10:00+00:00,246.8914,5.65,12.49,47.84626,-54.09684
2017-12-06 23:20:00+00:00,256.5731,5.64,12.57,47.84626,-54.09684
2017-12-06 23:30:00+00:00,264.713,5.69,12.57,47.84626,-54.09684
2017-12-06 23:40:00+00:00,273.2297,5.7,12.57,47.84626,-54.09684
2017-12-06 23:50:00+00:00,282.8797,5.7,12.57,47.84626,-54.09684
